This demonstration page uses our WeatherBlox Daily Observations layout. Learn more.

Left ArrowRight Arrow

41.86663, -103.66717

Hourly Observations for March 25, 2018

Temp ( °F °C ) Dew Point ( °F °C ) Humidity (%) Winds ( mph kmh ) Pressure ( in mb ) Visibility ( mi km ) Precip ( " mm )
12:53 am 00:53 Clear 40 4.4 34 1.1 79 79 SE 17 28 29.74 1007 10 16 N/A
1:11 am 01:11 Clear 38 3.3 35 1.7 89 89 E 17 28 29.85 1011 10 16 N/A
1:53 am 01:53 Mostly Clear 38 3.3 35 1.7 89 89 E 15 24 29.74 1007 10 16 N/A
2:53 am 02:53 Clear 36 2.2 34 1.1 93 93 E 12 19 29.75 1007 9 14 N/A
3:53 am 03:53 Clear 34 1.1 33 0.6 97 97 ESE 10 17 29.75 1007 8 13 N/A
4:53 am 04:53 Mostly Cloudy 35 1.7 34 1.1 96 96 E 10 17 29.75 1007 8 13 N/A
5:53 am 05:53 Mostly Clear 34 1.1 33 0.6 97 97 ESE 12 19 29.76 1008 7 11 N/A
6:53 am 06:53 Sunny with Mist and Fog 34 1.1 33 0.6 97 97 ESE 9 15 29.78 1008 6 10 N/A
7:53 am 07:53 Sunny 37 2.8 35 1.7 93 93 SE 8 13 29.80 1009 8 13 N/A
8:53 am 08:53 Sunny 39 3.9 35 1.7 86 86 SSE 7 11 29.82 1010 10 16 N/A
9:53 am 09:53 Sunny 42 5.6 36 2.2 79 79 undefined N/A 29.83 1010 10 16 N/A
10:53 am 10:53 Mostly Sunny 47 8.3 37 2.8 69 69 VRB 5 7 29.82 1010 10 16 N/A
11:53 am 11:53 Mostly Sunny 50 10 37 2.8 61 61 ESE 9 15 29.80 1009 10 16 N/A
12:53 pm 12:53 Sunny 52 11.1 39 3.9 61 61 ESE 9 15 29.78 1009 10 16 N/A
1:53 pm 13:53 Mostly Sunny 53 11.7 38 3.3 57 57 ESE 9 15 29.76 1008 10 16 N/A
2:53 pm 14:53 Partly Cloudy 55 12.8 38 3.3 53 53 E 9 15 29.75 1007 10 16 N/A
3:53 pm 15:53 Mostly Sunny 56 13.3 38 3.3 51 51 E 15 24 29.74 1007 10 16 N/A
4:53 pm 16:53 Mostly Cloudy 52 11.1 37 2.8 57 57 ESE 15 24 29.75 1007 10 16 N/A
5:53 pm 17:53 Mostly Cloudy 48 8.9 37 2.8 66 66 ESE 14 22 29.79 1009 10 16 N/A
6:53 pm 18:53 Cloudy 44 6.7 36 2.2 73 73 ESE 12 19 29.83 1010 10 16 N/A
7:53 pm 19:53 Cloudy 40 4.4 35 1.7 83 83 E 16 26 29.84 1011 10 16 N/A
8:53 pm 20:53 Cloudy with Light Rain 40 4.4 35 1.7 83 83 E 10 17 29.87 1011 10 16 N/A
9:08 pm 21:08 Cloudy with Light Rain 39 4 36 2 87 87 ESE 10 17 29.91 1013 10 16 N/A
9:53 pm 21:53 Cloudy with Light Rain 38 3.3 37 2.8 97 97 SE 7 11 29.90 1013 10 16 0.02 0.51
10:53 pm 22:53 Cloudy with Light Rain 38 3.3 36 2.2 93 93 E 7 11 29.87 1012 7 11 0.01 0.25
11:31 pm 23:31 Cloudy with Light Rain 37 2.8 36 2.2 96 96 SE 9 15 29.97 1015 9 14 0.01 0.25
11:44 pm 23:44 Cloudy with Light Rain 37 2.8 36 2.2 96 96 ESE 12 19 29.91 1013 8 13 0.01 0.25
11:53 pm 23:53 Cloudy 37 2.8 36 2.2 96 96 ESE 14 22 29.83 1010 8 13 0.01 0.25

Powered by AerisWeather